OBJECT AA, 47437

Orbit data source: Space-Track

You're viewing an Uncataloged Satellite

Recently launched and/or uncataloged satellites may have evolving metadata. Metadata may include but not limited to: Owner, Maufacturer, Bus, Motor, and Mission.

OBJECT AA, 47437 is a satellite in SSO that was launched on Sun, 24 Jan 2021 UTC launched from the Air Force Eastern Test Range (AFETR). Unknown objects in Earth's orbit typically refer to objects detected orbiting the Earth but have not yet been identified or cataloged. These objects could be anything from previously untracked satellites, spent rocket stages, debris from satellite collisions, or even natural meteoroids temporarily captured by Earth's gravity.

Loading next visibility...
OBJECT AA details
Identifier
47437, 2021-006AA
Orbit
SSO
Last TLE update8 hours ago
Origin
Flag of TBDSpaceX/Seattle (TBD)
ManufacturerSpaceX/Seattle
MissionSpacecraft
Bus & MotorUnknown
Mass~100 kg wet, ~100 kg dry
Launch date (UTC)
2021-01-24 (4 years ago)
Launch vehicleUnknown
Launch site
Air Force Eastern Test Range (AFETR)
Object typeUnknown
Shape & HBRCyl, Unknown HBR
Radar Cross Section0.110 m², Medium (>0.1 m² and < 1m²)

Expand to show TLE details & history

TLE from 8 hours ago
0 OBJECT AA
1 47437U 21006AA  24326.09925749  .00007724  00000-0  32970-3 0  9990
2 47437  97.3075  10.8610 0011884  78.3992 281.8579 15.23102667211843
Epoch: 2024-11-21T02:22Z
Definitive object data (Epoch: 2024-11-21T02:22:55.847Z)
Latitude0.00006°
Longitude-85.45756°
Altitude497.916 km
Speed7.617 km/s
True Right ascension00h 43m 26s
True Declination0° 00' 00"
Sunlit
Object was in full shadow at TLE epoch
Visualization TLE readout
Latitude-12.95941°
Longitude-83.45844°
Altitude502.154 km
Speed7.612 km/s
Apparent Right ascension22h 35m 27s
Apparent Declination-32° 45' 06"
Sunlit
Object is in full shadow
Visualization observer readout
Local Sidereal Time07:15:41
Azimuth264.002° W
Elevation-49.665°
Doppler factor1
Orbital elements
Apogee altitude501.612 km
Perigee altitude485.28 km
Semi-major axis6,871.583 km
Eccentricity0.0011884
Inclination97.3075°
RAAN10.861°
Arg. of periapsis78.3992°
True anomaly281.72458°
Mean anomaly281.8579°
Eccentric anomaly281.79125°
Mean motion3.81029 °/min
BSTAR0.0003297
Orbital period94.48 mins
Loading maneuver chart data...

OBJECT AA Visibility forecast

Observer location: undefined°, undefined

Span
Click to sort rows by Start time (UTC) header in descending order
Start Az.
Max El. time (UTC)
Max El. Az.
Max El.
End time (UTC)
End Az.
6 mins2024-11-21 15:33:32.417Z32.182° NE2024-11-21 15:36:32.417Z93.997° ESE29.445°2024-11-21 15:39:32.417Z161.703° S
4 mins2024-11-22 03:45:32.417Z220.016° SW2024-11-22 03:46:32.417Z249.433° W28.602°2024-11-22 03:49:32.417Z323.904° NNW
|